Weather History for Dumas, TX

Change the Weather History Date:

Tuesday, November 19, 2013

  Actual Average (KBGD) Record (KBGD)
Temperature  
Mean Temperature 52 °F 47 °F  
Max Temperature 71 °F 60 °F 83 °F (2007)
Min Temperature 33 °F 35 °F 19 °F (1969)
Degree Days  
Heating Degree Days 13 18  
Month to date heating degree days 271  
Since 1 July heating degree days 492  
Cooling Degree Days 0 0  
Month to date cooling degree days 0  
Year to date cooling degree days 1835  
Growing Degree Days 2 (Base 50)    
Moisture  
Dew Point 27 °F    
Average Humidity 39    
Maximum Humidity 55    
Minimum Humidity 23    
Precipitation  
Precipitation 0.00 in 0.03 in 0.95 in (1975)
Month to date precipitation 0.60  
Year to date precipitation 20.71  
Snow  
Snow 0.00 in - - ()
Month to date snowfall  
Since 1 July snowfall  
Since 1 September snowfall  
Snow Depth -    
Sea Level Pressure  
Sea Level Pressure 29.91 in    
Wind  
Wind Speed 14 mph (SSW)    
Max Wind Speed 34 mph    
Max Gust Speed 44 mph    
Visibility 10 miles    
Events      
T = Trace of Precipitation, MM = Missing Value Source: NWS Daily Summary

Daily Weather History Graph

Daily Weather History Graph

Search for Another Location

Airport:

Trip Planner

Search our weather history database for the weather conditions in past years. The results will help you decide how hot, cold, wet, or windy it might be!

Date:

Astronomy

Nov. 19, 2013 Rise Set
Actual Time 7:28 AM CST 5:38 PM CST
Civil Twilight 7:01 AM CST 6:05 PM CST
Nautical Twilight 6:29 AM CST 6:36 PM CST
Astronomical Twilight 5:59 AM CST 7:07 PM CST
Moon 7:31 PM CST (11/19) 9:08 AM CST (11/19)
Length of Visible Light 11h 04m
Length of Day
10h 09m
Waning Gibbous, 96% of the Moon is Illuminated
Nov 19
Waning Gibbous
Nov 25
Last Quarter
Dec 2
New
Dec 9
First Quarter
Dec 17
Full

Hourly Weather History & Observations

Time (CST) Temp. Windchill Dew Point Humidity Pressure Visibility Wind Dir Wind Speed Gust Speed Precip Events Conditions
12:15 AM 43.9 °F 38.3 °F 18.0 °F 35% 30.13 in 10.0 mi South 10.4 mph - N/A   Clear
12:35 AM 42.8 °F 36.6 °F 17.8 °F 37% 30.12 in 10.0 mi South 11.5 mph - N/A   Clear
12:55 AM 41.9 °F 35.9 °F 17.6 °F 38% 30.12 in 10.0 mi South 10.4 mph - N/A   Clear
1:15 AM 41.7 °F 35.6 °F 17.6 °F 38% 30.11 in 10.0 mi South 10.4 mph - N/A   Clear
1:35 AM 41.2 °F 36.0 °F 17.6 °F 39% 30.11 in 10.0 mi South 8.1 mph - N/A   Clear
1:55 AM 41.5 °F 36.4 °F 17.4 °F 38% 30.10 in 10.0 mi South 8.1 mph - N/A   Clear
2:15 AM 40.1 °F 33.6 °F 17.2 °F 40% 30.10 in 10.0 mi South 10.4 mph - N/A   Clear
2:35 AM 41.0 °F 34.3 °F 17.4 °F 39% 30.09 in 10.0 mi South 11.5 mph - N/A   Clear
2:55 AM 40.1 °F 33.2 °F 17.2 °F 40% 30.08 in 10.0 mi South 11.5 mph - N/A   Clear
3:15 AM 37.9 °F 30.9 °F 17.2 °F 43% 30.08 in 10.0 mi South 10.4 mph - N/A   Clear
3:35 AM 38.3 °F 31.4 °F 17.4 °F 43% 30.07 in 10.0 mi South 10.4 mph - N/A   Clear
3:55 AM 37.8 °F 30.7 °F 17.4 °F 44% 30.07 in 10.0 mi South 10.4 mph - N/A   Clear
4:15 AM 37.0 °F 29.8 °F 17.4 °F 45% 30.06 in 10.0 mi South 10.4 mph - N/A   Clear
4:35 AM 38.3 °F 31.4 °F 17.8 °F 44% 30.05 in 10.0 mi South 10.4 mph - N/A   Clear
4:55 AM 36.0 °F 28.5 °F 17.6 °F 47% 30.05 in 10.0 mi South 10.4 mph - N/A   Clear
5:15 AM 36.1 °F 28.7 °F 17.6 °F 47% 30.04 in 10.0 mi South 10.4 mph - N/A   Clear
5:35 AM 36.0 °F 29.0 °F 17.6 °F 47% 30.02 in 10.0 mi South 9.2 mph - N/A   Clear
5:55 AM 35.4 °F 28.4 °F 18.0 °F 49% 30.02 in 10.0 mi South 9.2 mph - N/A   Clear
6:15 AM 33.8 °F 26.4 °F 18.0 °F 52% 30.01 in 10.0 mi South 9.2 mph - N/A   Clear
6:35 AM 33.8 °F 26.4 °F 18.3 °F 53% 30.01 in 10.0 mi South 9.2 mph - N/A   Clear
6:55 AM 33.4 °F 25.9 °F 18.5 °F 54% 30.00 in 10.0 mi South 9.2 mph - N/A   Clear
7:15 AM 34.0 °F 26.6 °F 19.2 °F 55% 30.00 in 10.0 mi South 9.2 mph - N/A   Clear
7:35 AM 35.2 °F 27.6 °F 19.9 °F 54% 30.00 in 10.0 mi South 10.4 mph - N/A   Clear
7:55 AM 36.3 °F 28.9 °F 20.3 °F 52% 30.00 in 10.0 mi South 10.4 mph - N/A   Clear
8:15 AM 38.1 °F 31.2 °F 21.2 °F 51% 30.00 in 10.0 mi South 10.4 mph - N/A   Clear
8:35 AM 41.2 °F 34.5 °F 22.1 °F 47% 29.99 in 10.0 mi South 11.5 mph - N/A   Clear
8:55 AM 44.2 °F 37.6 °F 23.4 °F 44% 29.98 in 10.0 mi South 13.8 mph 20.7 mph N/A   Clear
9:15 AM 46.2 °F 39.5 °F 24.4 °F 42% 29.98 in 10.0 mi South 16.1 mph 23.0 mph N/A   Clear
9:35 AM 47.8 °F - 25.9 °F 42% 29.97 in 10.0 mi South 18.4 mph 21.9 mph N/A   Clear
9:55 AM 49.6 °F - 27.0 °F 41% 29.97 in 10.0 mi SSW 18.4 mph 21.9 mph N/A   Clear
10:15 AM 50.9 °F - 27.5 °F 40% 29.97 in 10.0 mi South 18.4 mph - N/A   Clear
10:35 AM 54.0 °F - 29.3 °F 39% 29.96 in 10.0 mi SSW 18.4 mph - N/A   Clear
10:55 AM 56.1 °F - 30.0 °F 37% 29.95 in 10.0 mi SSW 19.6 mph 24.2 mph N/A   Clear
11:15 AM 58.1 °F - 30.6 °F 35% 29.93 in 10.0 mi South 17.3 mph - N/A   Clear
11:35 AM 60.4 °F - 31.1 °F 33% 29.92 in 10.0 mi SSW 23.0 mph 28.8 mph N/A   Clear
11:55 AM 61.7 °F - 31.5 °F 32% 29.91 in 10.0 mi SSW 20.7 mph 26.5 mph N/A   Clear
12:15 PM 64.4 °F - 32.0 °F 30% 29.89 in 10.0 mi SSW 20.7 mph 28.8 mph N/A   Clear
12:35 PM 67.1 °F - 32.4 °F 28% 29.87 in 10.0 mi SSW 24.2 mph 28.8 mph N/A   Clear
12:55 PM 68.7 °F - 32.4 °F 26% 29.86 in 10.0 mi SW 26.5 mph 39.1 mph N/A   Clear
1:15 PM 66.9 °F - 32.0 °F 27% 29.85 in 10.0 mi SW 25.3 mph 35.7 mph N/A   Clear
1:35 PM 68.2 °F - 32.0 °F 26% 29.84 in 10.0 mi SW 25.3 mph 32.2 mph N/A   Clear
1:55 PM 70.7 °F - 31.8 °F 24% 29.82 in 10.0 mi SW 32.2 mph 38.0 mph N/A   Clear
2:15 PM 70.7 °F - 31.6 °F 24% 29.81 in 10.0 mi SW 31.1 mph 40.3 mph N/A   Clear
2:35 PM 71.2 °F - 31.1 °F 23% 29.80 in 10.0 mi SW 33.4 mph 43.7 mph N/A   Clear
2:55 PM 70.9 °F - 31.3 °F 23% 29.79 in 10.0 mi SW 34.5 mph 40.3 mph N/A   Clear
3:15 PM 71.2 °F - 31.6 °F 23% 29.79 in 10.0 mi SW 34.5 mph 41.4 mph N/A   Clear
3:35 PM 70.7 °F - 31.5 °F 23% 29.79 in 10.0 mi SW 32.2 mph 39.1 mph N/A   Clear
3:55 PM 69.6 °F - 31.5 °F 24% 29.79 in 10.0 mi SW 26.5 mph 38.0 mph N/A   Clear
4:15 PM 69.3 °F - 31.6 °F 25% 29.78 in 10.0 mi SW 25.3 mph 32.2 mph N/A   Clear
4:35 PM 69.4 °F - 32.0 °F 25% 29.79 in 10.0 mi SW 23.0 mph 26.5 mph N/A   Clear
4:55 PM 68.7 °F - 32.0 °F 26% 29.78 in 10.0 mi SW 25.3 mph 31.1 mph N/A   Clear
5:15 PM 66.7 °F - 32.0 °F 27% 29.78 in 10.0 mi SW 16.1 mph - N/A   Clear
5:35 PM 65.3 °F - 32.5 °F 29% 29.78 in 10.0 mi SSW 17.3 mph - N/A   Clear
5:55 PM 64.2 °F - 33.1 °F 31% 29.78 in 10.0 mi SSW 17.3 mph - N/A   Clear
6:15 PM 63.5 °F - 33.4 °F 33% 29.78 in 10.0 mi South 12.7 mph - N/A   Clear
6:35 PM 60.1 °F - 32.2 °F 35% 29.79 in 10.0 mi South 10.4 mph - N/A   Clear
6:55 PM 60.8 °F - 32.9 °F 35% 29.79 in 10.0 mi South 12.7 mph - N/A   Clear
7:15 PM 60.8 °F - 33.3 °F 36% 29.79 in 10.0 mi South 10.4 mph - N/A   Clear
7:35 PM 59.9 °F - 33.8 °F 38% 29.79 in 10.0 mi South 10.4 mph - N/A   Clear
7:55 PM 60.8 °F - 34.7 °F 38% 29.80 in 10.0 mi SSW 13.8 mph - N/A   Clear
8:15 PM 61.7 °F - 35.1 °F 37% 29.80 in 10.0 mi SSW 15.0 mph - N/A   Clear
8:35 PM 61.5 °F - 35.6 °F 38% 29.79 in 10.0 mi SSW 13.8 mph - N/A   Clear
8:55 PM 60.4 °F - 35.6 °F 40% 29.80 in 10.0 mi South 11.5 mph - N/A   Clear
9:15 PM 57.4 °F - 34.9 °F 43% 29.80 in 10.0 mi South 9.2 mph - N/A   Clear
9:35 PM 56.1 °F - 35.4 °F 46% 29.80 in 10.0 mi South 10.4 mph - N/A   Clear
9:55 PM 55.8 °F - 35.6 °F 47% 29.80 in 10.0 mi South 10.4 mph - N/A   Clear
10:15 PM 55.4 °F - 35.8 °F 48% 29.79 in 10.0 mi South 11.5 mph - N/A   Clear
10:35 PM 55.4 °F - 36.5 °F 49% 29.79 in 10.0 mi South 11.5 mph - N/A   Clear
10:55 PM 55.0 °F - 36.5 °F 50% 29.79 in 10.0 mi South 12.7 mph - N/A   Clear
11:15 PM 54.9 °F - 36.3 °F 50% 29.78 in 10.0 mi South 12.7 mph - N/A   Clear
11:35 PM 55.6 °F - 36.1 °F 48% 29.78 in 10.0 mi SSW 13.8 mph - N/A   Clear
11:55 PM 55.9 °F - 36.0 °F 47% 29.78 in 10.0 mi SSW 13.8 mph - N/A   Clear